This is the latest recevied weather packets stored in our database for station/object K5SVV. If no packets are shown the sender has not sent any weather packets the latest 10 day(s).
| Time | Temp. | Humidity | Pressure | Rain* | Wind** | Luminosity | Snow |
|---|---|---|---|---|---|---|---|
| 1787854375 | 36.67° C | 47% | 1014.5 hPa | 0 mm | - | 772 W/m² | - |
| 1787854070 | 36.67° C | 45% | 1014.6 hPa | 0 mm | - | 770 W/m² | - |
| 1787853768 | 36.11° C | 47% | 1014.8 hPa | 0 mm | - | 746 W/m² | - |
| 1787853463 | 36.11° C | 47% | 1014.6 hPa | 0 mm | - | 748 W/m² | - |
| 1787853162 | 36.11° C | 47% | 1014.7 hPa | 0 mm | - | 716 W/m² | - |
| 1787852857 | 35.56° C | 49% | 1014.7 hPa | 0 mm | - | 312 W/m² | - |
| 1787852557 | 35.56° C | 49% | 1014.9 hPa | 0 mm | - | 745 W/m² | - |
| 1787852256 | 35.56° C | 52% | 1014.9 hPa | 0 mm | - | 737 W/m² | - |
| 1787851950 | 35.56° C | 51% | 1014.8 hPa | 0 mm | - | 734 W/m² | - |
| 1787851650 | 35.56° C | 52% | 1014.9 hPa | 0 mm | - | 758 W/m² | - |
| 1787851350 | 35° C | 53% | 1015 hPa | 0 mm | - | 749 W/m² | - |
| 1787851045 | 35° C | 53% | 1014.9 hPa | 0 mm | - | 726 W/m² | - |
| 1787850741 | 34.44° C | 54% | 1015.1 hPa | 0 mm | - | 736 W/m² | - |
| 1787850436 | 35° C | 54% | 1015.1 hPa | 0 mm | - | 711 W/m² | - |
| 1787850132 | 34.44° C | 54% | 1015 hPa | 0 mm | - | 724 W/m² | - |
| 1787849831 | 34.44° C | 55% | 1015.1 hPa | 0 mm | - | 708 W/m² | - |
| 1787849526 | 34.44° C | 55% | 1015 hPa | 0 mm | - | 731 W/m² | - |
| 1787849225 | 33.89° C | 54% | 1015.1 hPa | 0 mm | - | 748 W/m² | - |
| 1787848924 | 33.89° C | 56% | 1015.5 hPa | 0 mm | - | 725 W/m² | - |
| 1787848619 | 33.89° C | 55% | 1015.2 hPa | 0 mm | - | 730 W/m² | - |
| 1787848314 | 33.33° C | 57% | 1015.4 hPa | 0 mm | - | 695 W/m² | - |
| 1787848014 | 33.89° C | 58% | 1015.4 hPa | 0 mm | - | 705 W/m² | - |
| 1787847708 | 33.33° C | 59% | 1015.4 hPa | 0 mm | - | 684 W/m² | - |
| 1787847403 | 33.89° C | 59% | 1015.5 hPa | 0 mm | - | 709 W/m² | - |
| 1787847099 | 33.33° C | 59% | 1015.5 hPa | 0 mm | - | 725 W/m² | - |
* Rain latest hour (hover to see other rain measurements)
** Current wind speed in m/s (hover to see current wind gust speed)